Location: Peebles
(55.6412°N, 3.1714°W)
Time: 06:29:49
(UTC+00:00)

Cosmos 1777 Rocket - Visible Passes

Search period start: 28 January 2022 00:00
Search period end: 07 February 2022 00:00
Orbit: 757 x 776 km, 74.0° (Epoch: 27 January)

Date Brightness Start Highest point End Pass type
(mag) Time Alt. Az. Time Alt. Az. Time Alt. Az.
28 Jan 6.2 03:29:49 22° NE 03:29:49 22° NE 03:33:00 10° E visible
28 Jan 4.0 05:10:05 44° NNW 05:11:48 78° ENE 05:17:03 10° SSE visible
28 Jan 5.2 06:50:21 14° WNW 06:53:17 22° W 06:57:16 10° SSW visible
28 Jan 6.2 19:50:59 10° S 19:51:33 13° S 19:51:33 13° S visible
29 Jan 6.8 02:53:39 13° ENE 02:53:39 13° ENE 02:54:34 10° ENE visible
29 Jan 4.6 04:33:57 53° NE 04:34:16 54° NE 04:39:25 10° SE visible
29 Jan 4.6 06:14:13 26° WNW 06:16:08 33° WSW 06:20:47 10° SSW visible
29 Jan 5.4 19:14:06 10° SSE 19:16:15 22° SSE 19:16:15 22° SSE visible
29 Jan 6.3 20:55:35 10° SW 20:56:35 16° SW 20:56:35 16° SW visible
30 Jan 5.5 03:57:55 33° E 03:57:55 33° E 04:01:33 10° ESE visible
30 Jan 4.1 05:38:13 47° W 05:38:53 50° WSW 05:43:56 10° S visible
30 Jan 5.2 18:37:35 10° SSE 18:40:52 23° ESE 18:40:52 23° ESE visible
30 Jan 5.0 20:17:55 10° SSW 20:21:13 39° SW 20:21:13 39° SW visible
31 Jan 6.5 03:22:02 17° E 03:22:02 17° E 03:23:29 10° ESE visible
31 Jan 4.1 05:02:21 62° S 05:02:21 62° S 05:06:46 10° SSE visible
31 Jan 5.5 06:42:39 15° W 06:42:42 15° W 06:45:39 10° SW visible
31 Jan 5.5 18:01:37 10° SE 18:04:37 15° E 18:05:26 15° E visible
31 Jan 3.8 19:40:30 10° SSW 19:45:45 75° ESE 19:45:45 75° ESE visible
31 Jan 6.2 21:23:48 10° WSW 21:26:05 21° W 21:26:05 21° W visible
01 Feb 5.3 04:26:38 31° SE 04:26:38 31° SE 04:29:21 10° SE visible
01 Feb 5.3 06:06:57 21° WSW 06:06:57 21° WSW 06:09:42 10° SSW visible
01 Feb 4.1 19:03:21 10° S 19:08:27 50° ESE 19:10:10 36° ENE visible
01 Feb 5.3 20:45:44 10° WSW 20:50:29 39° NW 20:50:29 39° NW visible
02 Feb 6.5 03:51:04 13° SE 03:51:04 13° SE 03:51:41 10° SE visible
02 Feb 5.6 05:31:23 20° SSW 05:31:23 20° SSW 05:33:10 10° SSW visible
02 Feb 4.7 18:26:29 10° SSE 18:31:11 33° ESE 18:34:26 18° NE visible
02 Feb 4.6 20:07:52 10° SW 20:13:04 54° NW 20:14:45 38° N visible
02 Feb 6.6 21:52:44 10° WNW 21:55:02 17° NW 21:55:02 17° NW visible
03 Feb 6.3 04:55:57 12° S 04:55:57 12° S 04:56:17 10° S visible
03 Feb 5.2 17:50:01 10° SSE 17:54:02 22° E 17:58:05 10° NE visible
03 Feb 4.1 19:30:14 10° SSW 19:35:32 78° WNW 19:38:51 24° NNE visible
03 Feb 6.1 21:14:18 10° W 21:18:28 23° NW 21:19:09 22° NNW visible
04 Feb 3.9 18:52:50 10° SSW 18:58:07 72° ESE 19:02:50 13° NNE visible
04 Feb 5.7 20:36:02 10° WSW 20:40:40 30° NW 20:43:07 21° N visible
04 Feb 6.9 22:22:14 10° NW 22:23:23 12° NNW 22:23:23 12° NNW visible
05 Feb 4.3 18:15:43 10° S 18:20:47 48° ESE 18:25:52 10° NE visible
05 Feb 5.2 19:57:59 10° WSW 20:02:58 40° NW 20:06:56 15° NNE visible
05 Feb 6.6 21:43:31 10° WNW 21:46:33 15° NNW 21:47:13 15° NNW visible
06 Feb 4.8 17:38:54 10° SSE 17:43:32 32° ESE 17:48:11 10° NE visible
06 Feb 4.6 19:20:09 10° SW 19:25:22 56° NW 19:30:36 10° NNE visible
06 Feb 6.4 21:04:56 10° WNW 21:08:36 18° NNW 21:10:56 14° N visible
